Location: Cartignies
(50.0929°N, 3.8447°E)
Time: 13:55:54
(UTC+00:00)

COSMO-SKYMED 1 - Pass Details

Date: 12 January 2026
Orbit: 577 x 579 km, 97.9° (Epoch: 16 February)

Event Time Altitude Azimuth Distance (km) Brightness Sun altitude
Exits shadow 17:09:28 13° 60° (ENE) 1,714 4.2 -9.7°
Maximum altitude 17:11:17 16° 90° (E) 1,523 4.0 -10.0°
Drops below altitude 10° 17:13:55 10° 130° (SE) 1,892 4.8 -10.4°
Sets 17:16:45 0° 152° (SSE) 2,784 5.8 -10.8°
